period_start,C,m1,H,J0,J1,J2,J3,J4,J5,JA,JB,JC,JD,JJ,JK,JN,#
2013-09-02 00:00:48,0.03,1.24,0.00,23.70,27.77,30.20,6.11,29.79,1014.16,2048.07,2981.09,2997.98,3222.99,349.78,322.22,22.02,0000 0000 0000 0000 000000
2013-09-02 00:01:48,0.00,1.24,0.00,23.66,27.77,30.08,5.89,29.71,1014.13,2048.04,2981.05,2997.95,3222.96,349.75,321.99,22.03,0000 0000 0000 0000 000000
2013-09-02 00:02:48,-0.02,1.24,0.00,23.65,27.78,30.02,5.96,30.13,1014.13,2048.05,2981.02,2997.79,3222.61,349.90,322.37,22.04,0000 0000 0000 0000 000000
2013-09-02 00:03:49,0.12,1.24,0.00,23.61,27.78,30.01,6.06,29.75,1014.09,2048.06,2981.00,2997.71,3222.43,350.86,323.29,22.04,0000 0000 0000 0000 000000
2013-09-02 00:04:49,0.07,1.24,0.00,23.59,27.79,29.99,5.96,29.67,1014.10,2048.06,2980.99,2997.47,3222.29,350.61,323.22,22.05,0000 0000 0000 0000 000000
2013-09-02 00:05:49,0.04,1.24,0.00,23.57,27.80,29.98,5.99,30.21,1014.07,2048.04,2980.98,2997.30,3222.22,349.96,322.49,22.05,0000 0000 0000 0000 000000
2013-09-02 00:06:49,0.06,1.24,0.00,23.56,27.80,29.99,5.92,29.75,1014.01,2048.05,2980.93,2997.13,3222.08,349.99,322.52,22.06,0000 0000 0000 0000 000000
2013-09-02 00:07:50,0.06,1.24,0.00,23.54,27.80,29.99,5.92,29.83,1014.00,2048.04,2980.80,2997.09,3222.03,349.56,322.24,22.06,0000 0000 0000 0000 000000
2013-09-02 00:08:50,0.02,1.24,0.00,23.55,27.80,30.00,5.99,29.75,1014.11,2048.02,2980.43,2997.04,3222.01,350.24,323.10,22.07,0000 0000 0000 0000 000000
2013-09-02 00:09:50,0.06,1.24,0.00,23.54,27.80,30.00,5.93,29.75,1014.11,2048.00,2980.16,2997.01,3221.99,349.79,322.38,22.08,0000 0000 0000 0000 000000
2013-09-02 00:10:50,0.04,1.24,0.00,23.51,27.80,30.01,5.87,29.79,1014.04,2048.00,2980.16,2997.00,3221.99,349.26,322.16,22.08,0000 0000 0000 0000 000000
2013-09-02 00:11:51,0.01,1.24,0.00,23.48,27.80,30.02,5.97,29.92,1013.94,2048.02,2980.08,2997.00,3221.98,349.74,322.36,22.09,0000 0000 0000 0000 000000
2013-09-02 00:12:51,0.02,1.24,0.00,23.47,27.80,30.02,6.03,29.79,1013.89,2048.02,2980.03,2997.00,3221.77,350.72,323.25,22.09,0000 0000 0000 0000 000000
2013-09-02 00:13:51,0.04,1.24,0.00,23.49,27.81,30.02,6.06,29.88,1013.91,2048.01,2980.00,2997.00,3221.56,350.16,322.91,22.10,0000 0000 0000 0000 000000
2013-09-02 00:14:51,0.01,1.24,0.00,23.47,27.82,30.03,6.07,29.92,1013.95,2048.01,2979.97,2997.00,3221.38,349.97,322.34,22.11,0000 0000 0000 0000 000000
2013-09-02 00:15:52,0.03,1.24,0.00,23.45,27.82,30.03,6.05,30.00,1013.91,2048.00,2979.87,2996.92,3221.18,350.17,322.11,22.11,0000 0000 0000 0000 000000
2013-09-02 00:16:52,0.06,1.24,0.00,23.45,27.82,30.05,6.02,29.71,1013.81,2048.00,2979.76,2996.91,3221.07,350.19,322.68,22.12,0000 0000 0000 0000 000000
2013-09-02 00:17:52,0.03,1.24,0.00,23.47,27.82,30.04,6.02,30.04,1013.78,2048.01,2979.68,2996.82,3221.04,349.86,322.42,22.12,0000 0000 0000 0000 000000
2013-09-02 00:18:52,0.04,1.24,0.00,23.45,27.82,30.05,5.91,29.83,1013.74,2048.03,2979.56,2996.59,3221.01,349.23,321.85,22.13,0000 0000 0000 0000 000000
2013-09-02 00:19:53,0.09,1.24,0.00,23.46,27.82,30.06,5.93,29.75,1013.72,2048.01,2979.39,2996.39,3221.00,349.55,322.13,22.13,0000 0000 0000 0000 000000
2013-09-02 00:20:53,0.09,1.24,0.00,23.46,27.82,30.06,5.88,29.75,1013.75,2048.01,2979.15,2996.16,3221.00,349.94,322.49,22.14,0000 0000 0000 0000 000000
2013-09-02 00:21:53,0.08,1.24,0.00,23.47,27.83,30.07,5.81,29.71,1013.77,2048.02,2979.08,2996.09,3221.00,349.65,322.23,22.15,0000 0000 0000 0000 000000
2013-09-02 00:22:53,0.01,1.24,0.00,23.46,27.83,30.07,5.96,29.63,1013.73,2048.00,2979.02,2996.06,3220.92,350.13,322.62,22.15,0000 0000 0000 0000 000000
2013-09-02 00:23:54,0.01,1.24,0.00,23.46,27.85,30.08,5.85,29.83,1013.70,2048.00,2979.00,2996.02,3220.71,349.33,322.09,22.16,0000 0000 0000 0000 000000
2013-09-02 00:24:54,0.04,1.24,0.00,23.44,27.85,30.08,6.12,29.79,1013.72,2048.00,2979.00,2996.00,3220.48,350.65,322.94,22.16,0000 0000 0000 0000 000000
2013-09-02 00:25:54,0.03,1.24,0.00,23.43,27.85,30.08,5.97,29.79,1013.71,2048.00,2978.99,2996.00,3220.40,350.15,322.71,22.17,0000 0000 0000 0000 000000
2013-09-02 00:26:54,0.00,1.24,0.00,23.42,27.85,30.07,6.13,29.79,1013.70,2048.00,2978.78,2996.00,3220.22,351.23,323.78,22.18,0000 0000 0000 0000 000000
2013-09-02 00:27:54,0.07,1.24,0.00,23.43,27.85,30.09,6.02,29.75,1013.71,2048.00,2978.48,2995.99,3220.09,350.44,322.97,22.18,0000 0000 0000 0000 000000
2013-09-02 00:28:54,0.06,1.24,0.00,23.43,27.85,30.08,6.00,29.88,1013.70,2048.00,2978.18,2995.94,3220.03,350.31,322.78,22.19,0000 0000 0000 0000 000000
2013-09-02 00:29:54,0.07,1.24,0.00,23.43,27.85,30.11,6.03,29.88,1013.69,2048.00,2978.09,2995.94,3220.01,350.18,322.87,22.19,0000 0000 0000 0000 000000
2013-09-02 00:30:55,0.00,1.24,0.00,23.43,27.85,30.11,6.03,29.67,1013.70,2047.99,2978.05,2995.86,3220.00,349.21,321.83,22.20,0000 0000 0000 0000 000000
2013-09-02 00:31:55,0.03,1.25,0.00,23.44,27.86,30.12,5.95,29.71,1013.69,2047.99,2978.01,2995.62,3219.97,349.66,322.03,22.21,0000 0000 0000 0000 000000
2013-09-02 00:32:55,0.06,1.25,0.00,23.43,27.87,30.14,5.93,29.71,1013.69,2047.98,2977.99,2995.37,3219.95,350.01,322.61,22.21,0000 0000 0000 0000 000000
2013-09-02 00:33:55,0.06,1.25,0.00,23.42,27.87,30.14,5.96,29.71,1013.70,2047.99,2977.97,2995.16,3219.87,349.41,322.29,22.22,0000 0000 0000 0000 000000
2013-09-02 00:34:56,0.05,1.25,0.00,23.41,27.87,30.15,5.99,29.88,1013.71,2047.99,2977.98,2995.07,3219.80,350.07,322.26,22.22,0000 0000 0000 0000 000000
2013-09-02 00:35:56,0.03,1.25,0.00,23.42,27.87,30.16,6.03,29.75,1013.70,2047.99,2977.79,2995.03,3219.48,349.49,322.54,22.23,0000 0000 0000 0000 000000
2013-09-02 00:36:56,0.10,1.25,0.00,23.42,27.87,30.18,5.82,29.79,1013.70,2047.98,2977.47,2995.01,3219.20,349.46,321.89,22.23,0000 0000 0000 0000 000000
2013-09-02 00:37:56,0.07,1.25,0.00,23.44,27.87,30.17,5.96,29.79,1013.69,2047.97,2977.28,2995.00,3219.07,349.88,322.79,22.24,0000 0000 0000 0000 000000
2013-09-02 00:38:56,0.04,1.25,0.00,23.46,27.87,30.15,5.93,29.67,1013.69,2047.99,2977.16,2994.99,3219.03,349.71,322.38,22.25,0000 0000 0000 0000 000000
2013-09-02 00:39:57,0.04,1.25,0.00,23.47,27.88,30.16,5.84,29.75,1013.70,2047.98,2977.09,2994.99,3219.00,348.65,321.29,22.25,0000 0000 0000 0000 000000
2013-09-02 00:40:57,0.00,1.25,0.00,23.44,27.89,30.15,5.97,30.38,1013.71,2047.97,2977.04,2994.97,3219.00,349.58,322.26,22.26,0000 0000 0000 0000 000000
2013-09-02 00:41:57,0.01,1.25,0.00,23.40,27.89,30.15,5.92,30.08,1013.69,2047.96,2977.01,2994.93,3218.98,350.22,322.80,22.26,0000 0000 0000 0000 000000
2013-09-02 00:42:57,0.01,1.25,0.00,23.38,27.90,30.17,5.89,30.46,1013.69,2047.95,2976.85,2994.79,3218.84,349.71,322.34,22.27,0000 0000 0000 0000 000000
2013-09-02 00:43:57,0.07,1.25,0.00,23.36,27.90,30.18,6.05,30.29,1013.70,2047.96,2976.78,2994.60,3218.73,350.58,323.18,22.28,0000 0000 0000 0000 000000
2013-09-02 00:44:58,0.07,1.25,0.00,23.36,27.90,30.18,6.06,30.00,1013.71,2047.96,2976.73,2994.60,3218.61,351.02,323.58,22.28,0000 0000 0000 0000 000000
2013-09-02 00:45:58,0.03,1.25,0.00,23.35,27.90,30.18,5.93,29.88,1013.70,2047.98,2976.75,2994.58,3218.67,350.01,322.67,22.29,0000 0000 0000 0000 000000
2013-09-02 00:46:58,-0.01,1.25,0.00,23.36,27.90,30.17,5.98,29.71,1013.71,2047.97,2976.62,2994.36,3218.44,350.34,322.95,22.29,0000 0000 0000 0000 000000
2013-09-02 00:47:58,0.13,1.25,0.00,23.37,27.90,30.18,5.98,29.63,1013.69,2047.98,2976.32,2994.16,3218.23,350.42,323.02,22.30,0000 0000 0000 0000 000000
2013-09-02 00:48:58,0.12,1.25,0.00,23.36,27.90,30.20,5.88,29.79,1013.71,2047.97,2976.13,2994.07,3218.10,349.33,322.02,22.30,0000 0000 0000 0000 000000
2013-09-02 00:49:59,0.05,1.25,0.00,23.38,27.90,30.21,5.97,30.08,1013.70,2047.94,2976.04,2994.03,3218.03,348.87,321.41,22.31,0000 0000 0000 0000 000000
2013-09-02 00:50:59,0.01,1.25,0.00,23.37,27.91,30.20,5.91,29.75,1013.69,2047.94,2975.96,2994.01,3218.00,349.89,322.48,22.32,0000 0000 0000 0000 000000
2013-09-02 00:51:59,0.03,1.25,0.00,23.36,27.92,30.20,5.92,30.17,1013.69,2047.96,2975.86,2994.00,3217.98,349.52,322.21,22.32,0000 0000 0000 0000 000000
2013-09-02 00:52:59,0.01,1.25,0.00,23.38,27.92,30.21,5.92,29.88,1013.69,2047.95,2975.92,2994.00,3217.95,349.81,322.41,22.33,0000 0000 0000 0000 000000
2013-09-02 00:54:00,-0.01,1.25,0.00,23.40,27.92,30.22,5.98,29.71,1013.69,2047.95,2975.85,2994.00,3217.90,350.23,322.82,22.33,0000 0000 0000 0000 000000
2013-09-02 00:55:00,0.02,1.25,0.00,23.37,27.92,30.21,6.00,29.75,1013.70,2047.95,2975.79,2994.00,3217.83,348.94,321.65,22.34,0000 0000 0000 0000 000000
2013-09-02 00:56:00,0.00,1.25,0.00,23.36,27.92,30.22,5.78,29.71,1013.70,2047.93,2975.50,2993.99,3217.63,349.09,321.80,22.35,0000 0000 0000 0000 000000
2013-09-02 00:57:00,0.06,1.25,0.00,23.37,27.92,30.22,6.04,29.75,1013.69,2047.95,2975.27,2993.98,3217.33,349.61,322.27,22.35,0000 0000 0000 0000 000000
2013-09-02 00:58:00,0.12,1.25,0.00,23.38,27.92,30.22,5.90,29.71,1013.69,2047.97,2975.22,2993.99,3217.28,350.03,322.76,22.36,0000 0000 0000 0000 000000
2013-09-02 00:59:01,0.01,1.25,0.00,23.39,27.92,30.21,6.05,29.75,1013.69,2047.97,2975.09,2993.97,3217.14,349.97,323.00,22.36,0000 0000 0000 0000 000000
2013-09-02 01:00:01,0.04,1.25,0.00,23.42,27.92,30.23,5.98,29.67,1013.69,2047.97,2975.03,2993.87,3217.05,349.29,321.92,22.37,0000 0000 0000 0000 000000
2013-09-02 01:01:01,0.03,1.25,0.00,23.41,27.92,30.25,6.02,29.67,1013.69,2047.97,2975.00,2993.76,3217.01,350.13,322.50,22.37,0000 0000 0000 0000 000000
2013-09-02 01:02:02,0.03,1.25,0.00,23.41,27.92,30.22,6.08,29.75,1013.69,2047.97,2975.00,2993.70,3217.00,350.30,322.57,22.38,0000 0000 0000 0000 000000
2013-09-02 01:03:02,0.03,1.25,0.00,23.42,27.92,30.22,5.97,29.63,1013.69,2047.96,2974.97,2993.52,3217.00,349.85,322.74,22.39,0000 0000 0000 0000 000000
2013-09-02 01:04:02,0.04,1.25,0.00,23.40,27.93,30.24,6.08,29.67,1013.68,2047.98,2974.93,2993.34,3217.00,351.08,323.59,22.39,0000 0000 0000 0000 000000
2013-09-02 01:05:02,0.06,1.25,0.00,23.42,27.93,30.25,5.97,29.79,1013.68,2047.97,2974.81,2993.18,3217.00,349.60,322.21,22.40,0000 0000 0000 0000 000000
2013-09-02 01:06:02,0.05,1.25,0.00,23.43,27.94,30.25,5.96,30.00,1013.68,2047.96,2974.53,2993.07,3216.92,350.06,322.63,22.40,0000 0000 0000 0000 000000
2013-09-02 01:07:03,0.07,1.25,0.00,23.42,27.94,30.23,6.02,29.88,1013.66,2047.94,2974.33,2993.03,3216.86,349.42,322.03,22.41,0000 0000 0000 0000 000000
2013-09-02 01:08:03,0.02,1.25,0.00,23.43,27.95,30.23,5.88,29.83,1013.65,2047.93,2974.18,2993.01,3216.68,349.26,321.86,22.42,0000 0000 0000 0000 000000
2013-09-02 01:09:03,0.03,1.26,0.00,23.44,27.95,30.24,5.85,29.75,1013.59,2047.93,2974.11,2993.00,3216.68,349.76,322.30,22.42,0000 0000 0000 0000 000000
2013-09-02 01:10:03,0.02,1.26,0.00,23.43,27.95,30.25,6.03,30.00,1013.49,2047.93,2974.10,2993.00,3216.50,350.19,322.68,22.43,0000 0000 0000 0000 000000
2013-09-02 01:11:03,0.02,1.26,0.00,23.43,27.95,30.25,5.94,29.79,1013.40,2047.93,2974.03,2993.00,3216.21,350.34,322.79,22.43,0000 0000 0000 0000 000000
2013-09-02 01:12:04,0.02,1.26,0.00,23.43,27.95,30.25,5.85,29.71,1013.36,2047.86,2974.00,2993.00,3216.09,349.67,321.88,22.44,0000 0000 0000 0000 000000
2013-09-02 01:13:04,-0.02,1.26,0.00,23.43,27.95,30.23,5.85,29.67,1013.31,2047.85,2973.93,2993.00,3216.03,349.04,321.86,22.44,0000 0000 0000 0000 000000
2013-09-02 01:14:04,0.01,1.26,0.00,23.42,27.95,30.24,5.98,29.79,1013.32,2047.84,2973.94,2992.97,3216.01,349.69,322.17,22.45,0000 0000 0000 0000 000000
2013-09-02 01:15:04,0.00,1.26,0.00,23.42,27.95,30.23,5.95,29.88,1013.37,2047.79,2973.65,2992.87,3215.99,350.53,322.55,22.46,0000 0000 0000 0000 000000
2013-09-02 01:16:05,0.02,1.26,0.00,23.42,27.95,30.23,5.87,29.71,1013.43,2047.74,2973.31,2992.73,3215.94,349.73,321.88,22.46,0000 0000 0000 0000 000000
2013-09-02 01:17:05,0.03,1.26,0.00,23.43,27.95,30.23,6.09,29.79,1013.40,2047.71,2973.32,2992.56,3215.93,350.51,323.05,22.47,0000 0000 0000 0000 000000
2013-09-02 01:18:05,0.06,1.26,0.00,23.46,27.95,30.26,5.88,29.71,1013.29,2047.76,2973.22,2992.40,3215.74,349.65,322.33,22.47,0000 0000 0000 0000 000000
2013-09-02 01:19:06,0.13,1.26,0.00,23.44,27.95,30.23,5.89,29.88,1013.25,2047.83,2973.08,2992.23,3215.53,350.04,321.90,22.48,0000 0000 0000 0000 000000
2013-09-02 01:20:06,0.13,1.26,0.00,23.42,27.95,30.27,6.10,29.79,1013.27,2047.82,2973.02,2992.13,3215.39,350.92,323.29,22.49,0000 0000 0000 0000 000000
2013-09-02 01:21:06,0.03,1.26,0.00,23.44,27.96,30.28,5.82,29.58,1013.28,2047.86,2973.00,2992.07,3215.33,349.48,321.95,22.49,0000 0000 0000 0000 000000
2013-09-02 01:22:06,0.04,1.26,0.00,23.45,27.97,30.26,5.97,29.75,1013.26,2047.85,2972.99,2992.05,3215.19,350.38,322.61,22.50,0000 0000 0000 0000 000000
2013-09-02 01:23:07,0.01,1.26,0.00,23.44,27.97,30.24,5.96,29.92,1013.22,2047.83,2972.99,2992.02,3215.12,349.97,322.87,22.50,0000 0000 0000 0000 000000
2013-09-02 01:24:07,-0.02,1.26,0.00,23.44,27.97,30.26,6.12,29.63,1013.24,2047.67,2972.96,2992.01,3215.10,350.98,323.12,22.51,0000 0000 0000 0000 000000
2013-09-02 01:25:07,-0.11,1.26,0.00,23.44,27.97,30.28,5.77,29.67,1013.24,2047.68,2972.99,2992.03,3215.08,348.19,320.75,22.52,0000 0000 0000 0000 000000
2013-09-02 01:26:07,0.01,1.26,0.00,23.43,27.97,30.27,5.86,29.75,1013.24,2047.77,2972.97,2992.01,3215.03,349.53,321.99,22.52,0000 0000 0000 0000 000000
2013-09-02 01:27:08,0.11,1.26,0.00,23.43,27.97,30.28,5.79,29.96,1013.23,2047.70,2972.96,2992.00,3215.02,348.01,320.59,22.53,0000 0000 0000 0000 000000
2013-09-02 01:28:08,-0.04,1.26,0.00,23.45,27.97,30.28,5.96,29.79,1013.21,2047.68,2972.75,2992.00,3215.00,350.72,323.06,22.53,0000 0000 0000 0000 000000
2013-09-02 01:29:08,-0.01,1.26,0.00,23.46,27.97,30.28,5.96,29.71,1013.21,2047.64,2972.75,2992.00,3215.00,350.19,322.11,22.54,0000 0000 0000 0000 000000
2013-09-02 01:30:08,-0.02,1.26,0.00,23.46,27.97,30.28,5.93,29.71,1013.21,2047.53,2972.61,2991.99,3214.99,350.19,322.57,22.54,0000 0000 0000 0000 000000
2013-09-02 01:31:09,-0.04,1.26,0.00,23.47,27.97,30.28,5.88,29.75,1013.22,2047.44,2972.28,2991.98,3214.90,349.65,322.00,22.55,0000 0000 0000 0000 000000
2013-09-02 01:32:09,-0.04,1.26,0.00,23.50,27.97,30.28,5.98,29.67,1013.20,2047.33,2972.13,2991.96,3214.85,350.04,322.22,22.56,0000 0000 0000 0000 000000
2013-09-02 01:33:09,-0.03,1.26,0.00,23.50,27.97,30.28,6.02,29.83,1013.20,2047.33,2972.05,2991.93,3214.70,350.17,322.48,22.56,0000 0000 0000 0000 000000
2013-09-02 01:34:09,0.05,1.26,0.00,23.48,27.97,30.29,6.03,29.96,1013.20,2047.32,2972.02,2991.84,3214.52,350.51,322.62,22.57,0000 0000 0000 0000 000000
2013-09-02 01:35:09,0.02,1.26,0.00,23.51,27.98,30.26,5.98,29.67,1013.21,2047.20,2972.00,2991.56,3214.32,350.49,322.78,22.57,0000 0000 0000 0000 000000
2013-09-02 01:36:10,0.01,1.26,0.00,23.50,27.98,30.28,5.98,29.92,1013.20,2047.17,2971.96,2991.27,3214.14,350.45,322.42,22.58,0000 0000 0000 0000 000000
2013-09-02 01:37:10,0.09,1.26,0.00,23.53,27.99,30.27,5.86,30.08,1013.21,2047.23,2971.97,2991.17,3214.11,349.41,321.76,22.59,0000 0000 0000 0000 000000
2013-09-02 01:38:10,0.07,1.26,0.00,23.52,27.99,30.28,5.83,29.92,1013.20,2047.22,2971.90,2991.08,3214.07,349.81,322.13,22.59,0000 0000 0000 0000 000000
2013-09-02 01:39:10,0.00,1.26,0.00,23.52,28.00,30.29,5.94,29.67,1013.20,2047.19,2971.75,2991.05,3214.03,349.94,322.26,22.60,0000 0000 0000 0000 000000
2013-09-02 01:40:11,0.01,1.26,0.00,23.52,28.00,30.28,5.94,29.79,1013.20,2047.11,2971.48,2991.02,3214.00,349.35,321.55,22.60,0000 0000 0000 0000 000000
2013-09-02 01:41:11,-0.03,1.26,0.00,23.52,28.00,30.28,5.98,30.46,1013.20,2047.07,2971.25,2991.00,3214.00,349.93,322.25,22.61,0000 0000 0000 0000 000000
2013-09-02 01:42:11,0.02,1.26,0.00,23.51,28.00,30.27,6.07,30.25,1013.18,2047.04,2971.11,2991.00,3213.91,350.41,322.53,22.61,0000 0000 0000 0000 000000
2013-09-02 01:43:11,0.00,1.26,0.00,23.49,28.00,30.27,5.94,30.21,1013.19,2047.02,2971.04,2991.00,3213.78,349.40,321.61,22.62,0000 0000 0000 0000 000000
2013-09-02 01:44:12,0.01,1.26,0.00,23.50,28.00,30.28,5.96,29.92,1013.18,2047.01,2971.02,2990.97,3213.71,350.10,322.05,22.63,0000 0000 0000 0000 000000
2013-09-02 01:45:12,0.00,1.26,0.00,23.48,28.00,30.29,5.93,29.67,1013.15,2047.02,2971.00,2990.97,3213.56,350.22,322.54,22.63,0000 0000 0000 0000 000000
2013-09-02 01:46:12,0.01,1.26,0.00,23.45,28.00,30.31,5.93,29.75,1013.05,2047.01,2971.00,2990.97,3213.65,349.97,322.32,22.64,0000 0000 0000 0000 000000
2013-09-02 01:47:13,0.02,1.26,0.00,23.44,28.00,30.29,5.87,29.88,1012.91,2047.02,2970.92,2990.93,3213.31,348.49,320.93,22.64,0000 0000 0000 0000 000000
2013-09-02 01:48:13,0.08,1.26,0.00,23.40,28.00,30.28,5.90,29.67,1012.84,2047.03,2970.66,2990.74,3213.12,350.78,323.04,22.65,0000 0000 0000 0000 000000
2013-09-02 01:49:13,0.13,1.26,0.00,23.41,28.00,30.31,5.93,29.75,1012.86,2047.08,2970.32,2990.49,3213.05,350.11,322.43,22.66,0000 0000 0000 0000 000000
2013-09-02 01:50:13,0.14,1.26,0.00,23.41,28.00,30.31,6.01,29.83,1012.87,2047.06,2970.22,2990.31,3213.01,350.56,322.32,22.66,0000 0000 0000 0000 000000
2013-09-02 01:51:14,0.07,1.26,0.00,23.42,28.00,30.32,5.96,29.63,1012.88,2047.09,2970.09,2990.20,3212.98,349.18,321.72,22.67,0000 0000 0000 0000 000000
2013-09-02 01:52:14,0.05,1.26,0.00,23.44,28.01,30.33,5.95,29.58,1012.83,2047.07,2970.02,2990.11,3212.87,350.06,322.34,22.67,0000 0000 0000 0000 000000
2013-09-02 01:53:14,0.02,1.26,0.00,23.46,28.01,30.30,6.13,29.88,1012.81,2047.04,2970.06,2990.05,3212.94,350.74,322.93,22.68,0000 0000 0000 0000 000000
2013-09-02 01:54:14,-0.01,1.26,0.00,23.48,28.01,30.32,6.11,29.75,1012.76,2047.04,2970.06,2990.03,3212.95,350.89,323.03,22.69,0000 0000 0000 0000 000000
2013-09-02 01:55:15,0.01,1.26,0.00,23.47,28.02,30.32,5.96,29.96,1012.75,2047.05,2970.00,2990.01,3212.89,349.79,322.15,22.69,0000 0000 0000 0000 000000
2013-09-02 01:56:15,0.01,1.26,0.00,23.47,28.02,30.34,6.01,29.67,1012.82,2047.03,2970.00,2990.00,3212.80,350.30,322.74,22.70,0000 0000 0000 0000 000000
2013-09-02 01:57:15,0.01,1.26,0.00,23.49,28.02,30.36,5.84,29.83,1012.91,2047.04,2969.99,2990.00,3212.60,349.38,321.68,22.70,0000 0000 0000 0000 000000
2013-09-02 01:58:15,0.04,1.26,0.00,23.49,28.02,30.34,6.07,29.71,1012.97,2047.04,2969.88,2990.00,3212.28,350.46,322.89,22.71,0000 0000 0000 0000 000000
2013-09-02 01:59:16,0.06,1.26,0.00,23.51,28.02,30.34,5.98,29.63,1012.99,2047.03,2969.55,2990.00,3212.11,350.29,322.64,22.71,0000 0000 0000 0000 000000
2013-09-02 02:00:16,0.06,1.26,0.00,23.53,28.02,30.35,5.91,29.75,1013.01,2047.02,2969.22,2989.99,3212.04,349.82,322.34,22.72,0000 0000 0000 0000 000000
2013-09-02 02:01:16,0.05,1.26,0.00,23.56,28.02,30.35,5.99,29.67,1013.05,2047.01,2969.14,2989.97,3212.00,350.17,322.65,22.73,0000 0000 0000 0000 000000
2013-09-02 02:02:16,0.02,1.26,0.00,23.59,28.02,30.34,5.90,29.75,1013.06,2047.00,2969.14,2989.95,3212.00,349.74,321.87,22.73,0000 0000 0000 0000 000000
2013-09-02 02:03:17,-0.01,1.26,0.00,23.61,28.02,30.32,5.88,29.63,1013.06,2047.01,2969.17,2989.95,3211.99,349.75,322.42,22.74,0000 0000 0000 0000 000000
2013-09-02 02:04:17,0.01,1.26,0.00,23.62,28.02,30.33,5.92,29.67,1013.01,2047.02,2969.12,2989.81,3211.99,348.88,321.07,22.74,0000 0000 0000 0000 000000
2013-09-02 02:05:17,0.04,1.26,0.00,23.62,28.02,30.33,5.96,29.75,1013.03,2047.02,2969.04,2989.64,3211.99,350.19,322.32,22.75,0000 0000 0000 0000 000000
2013-09-02 02:06:17,0.06,1.26,0.00,23.64,28.02,30.33,5.98,29.63,1013.02,2047.00,2969.02,2989.46,3211.95,350.03,322.14,22.76,0000 0000 0000 0000 000000
2013-09-02 02:07:18,0.03,1.26,0.00,23.64,28.02,30.33,5.91,29.83,1012.99,2047.00,2969.00,2989.22,3211.92,349.22,321.29,22.76,0000 0000 0000 0000 000000
2013-09-02 02:08:18,0.06,1.27,0.00,23.62,28.02,30.34,5.77,29.88,1013.03,2047.00,2969.00,2989.13,3211.83,348.68,320.93,22.77,0000 0000 0000 0000 000000
2013-09-02 02:09:18,0.04,1.27,0.00,23.61,28.03,30.35,6.08,29.75,1012.95,2047.00,2968.99,2989.07,3211.63,350.87,322.92,22.77,0000 0000 0000 0000 000000
2013-09-02 02:10:19,0.06,1.27,0.00,23.60,28.04,30.36,5.93,29.75,1013.03,2047.00,2968.72,2989.03,3211.36,349.64,321.81,22.78,0000 0000 0000 0000 000000
2013-09-02 02:11:19,0.06,1.27,0.00,23.56,28.04,30.35,5.98,29.92,1013.08,2047.00,2968.46,2989.00,3211.16,349.88,321.77,22.78,0000 0000 0000 0000 000000
2013-09-02 02:12:19,0.08,1.27,0.00,23.54,28.05,30.34,6.06,29.92,1013.03,2047.01,2968.22,2989.00,3211.05,350.04,321.95,22.79,0000 0000 0000 0000 000000
2013-09-02 02:13:20,0.05,1.27,0.00,23.54,28.05,30.36,5.98,29.71,1013.08,2047.00,2968.19,2989.00,3211.01,349.84,322.13,22.80,0000 0000 0000 0000 000000
2013-09-02 02:14:20,0.01,1.27,0.00,23.52,28.05,30.35,5.82,29.75,1013.11,2047.00,2968.16,2989.00,3211.00,349.68,321.97,22.80,0000 0000 0000 0000 000000
2013-09-02 02:15:20,0.01,1.27,0.00,23.52,28.05,30.36,6.08,29.75,1013.09,2047.00,2968.06,2989.00,3211.00,351.04,323.24,22.81,0000 0000 0000 0000 000000
2013-09-02 02:16:20,0.02,1.27,0.00,23.53,28.05,30.34,6.15,29.67,1013.03,2047.00,2968.01,2988.98,3210.92,351.18,323.36,22.81,0000 0000 0000 0000 000000
2013-09-02 02:17:21,0.01,1.27,0.00,23.56,28.05,30.37,6.04,29.83,1012.99,2047.00,2968.02,2988.97,3210.92,350.44,322.69,22.82,0000 0000 0000 0000 000000
2013-09-02 02:18:21,0.01,1.27,0.00,23.59,28.05,30.37,6.01,29.67,1012.97,2047.00,2968.01,2988.96,3210.92,350.42,322.55,22.83,0000 0000 0000 0000 000000
2013-09-02 02:19:22,0.01,1.27,0.00,23.60,28.05,30.38,5.91,29.71,1012.92,2047.00,2967.91,2988.92,3210.74,350.14,321.93,22.83,0000 0000 0000 0000 000000
2013-09-02 02:20:22,0.03,1.27,0.00,23.61,28.05,30.37,5.89,29.71,1012.82,2047.00,2967.76,2988.85,3210.47,350.50,322.49,22.84,0000 0000 0000 0000 000000
2013-09-02 02:21:22,0.07,1.27,0.00,23.59,28.05,30.37,6.02,29.96,1012.74,2047.00,2967.49,2988.64,3210.26,349.65,321.77,22.84,0000 0000 0000 0000 000000
2013-09-02 02:22:22,0.11,1.27,0.00,23.62,28.05,30.37,5.93,29.79,1012.76,2047.00,2967.36,2988.41,3210.18,349.67,321.76,22.85,0000 0000 0000 0000 000000
2013-09-02 02:23:22,0.05,1.27,0.00,23.64,28.05,30.37,6.08,29.67,1012.76,2047.01,2967.59,2988.41,3210.26,350.50,322.76,22.86,0000 0000 0000 0000 000000
2013-09-02 02:24:23,0.01,1.27,0.00,23.65,28.06,30.37,5.98,29.96,1012.78,2047.00,2967.47,2988.22,3210.16,349.53,321.60,22.86,0000 0000 0000 0000 000000
2013-09-02 02:25:23,0.06,1.27,0.00,23.66,28.07,30.34,6.04,30.04,1012.76,2047.00,2967.38,2988.11,3210.07,350.06,322.08,22.87,0000 0000 0000 0000 000000
2013-09-02 02:26:23,0.07,1.27,0.00,23.68,28.07,30.34,5.94,29.63,1012.76,2047.00,2967.14,2988.07,3210.01,349.97,321.97,22.87,0000 0000 0000 0000 000000
2013-09-02 02:27:24,0.05,1.27,0.00,23.68,28.07,30.38,5.91,29.75,1012.78,2047.00,2967.01,2988.02,3209.96,350.08,321.35,22.88,0000 0000 0000 0000 000000
2013-09-02 02:28:24,0.03,1.27,0.00,23.67,28.07,30.35,5.88,29.79,1012.78,2047.00,2967.03,2988.00,3209.97,349.16,321.37,22.88,0000 0000 0000 0000 000000
2013-09-02 02:29:24,0.01,1.27,0.00,23.71,28.07,30.35,6.02,29.88,1012.76,2047.00,2967.01,2988.00,3209.97,349.80,321.86,22.89,0000 0000 0000 0000 000000
2013-09-02 02:30:25,0.00,1.27,0.00,23.68,28.07,30.34,5.86,29.75,1012.75,2047.00,2966.99,2988.00,3209.97,349.82,321.83,22.90,0000 0000 0000 0000 000000
2013-09-02 02:31:25,0.00,1.27,0.00,23.67,28.07,30.35,6.02,29.75,1012.75,2047.01,2966.99,2988.00,3209.98,350.29,322.26,22.90,0000 0000 0000 0000 000000
2013-09-02 02:32:25,0.00,1.27,0.00,23.67,28.07,30.34,5.95,29.79,1012.77,2047.00,2967.00,2988.00,3209.98,349.83,322.08,22.91,0000 0000 0000 0000 000000
2013-09-02 02:33:26,0.00,1.27,0.00,23.67,28.07,30.35,5.95,29.83,1012.79,2047.00,2967.00,2988.00,3209.85,350.54,322.28,22.91,0000 0000 0000 0000 000000
2013-09-02 02:34:26,0.04,1.27,0.00,23.66,28.07,30.36,6.16,29.79,1012.75,2047.01,2966.93,2987.98,3209.68,350.77,322.37,22.92,0000 0000 0000 0000 000000
2013-09-02 02:35:26,0.02,1.27,0.00,23.69,28.08,30.36,6.02,29.88,1012.75,2047.00,2966.93,2987.98,3209.70,350.12,321.93,22.93,0000 0000 0000 0000 000000
2013-09-02 02:36:26,0.00,1.27,0.00,23.68,28.09,30.36,5.87,29.88,1012.77,2047.00,2966.88,2987.98,3209.39,350.04,322.26,22.93,0000 0000 0000 0000 000000